Location: Crocus Hill
(18.2167°N, 63.0667°W)
Time: 16:33:06
(UTC+00:00)

Milstar 3 - Pass Details

Date: 26 January 2020
Orbit: 1101 x 5144 km, 28.2° (Epoch: 14 February)

Event Time Altitude Azimuth Distance (km) Brightness Sun altitude
Exits shadow 07:47:58 42° 204° (SSW) 3,230 4.9 -42.0°
Maximum altitude 07:52:37 55° 156° (SSE) 2,422 4.4 -40.9°
Drops below altitude 10° 08:01:33 10° 80° (E) 3,587 6.1 -38.8°
Sets 08:04:01 0° 75° (ENE) 4,340 6.7 -38.2°
